User: anonymous   Login
Location: Newark
(50.8086°N, 4.3114°E)
Time: 11:09:32
(UTC+00:00)
Language:

Oscar 11 - Orbit

View from above orbital plane
View from above orbital plane
View from above satellite
View from above satellite

Ground track
Ground track

The orbit data is extracted from the following two-line orbital elements,

1 14781U 84021B   20028.75901308 +.00000065 +00000-0 +14070-4 0  9998
2 14781 097.5972 047.6791 0007284 310.4613 049.5966 14.83137888910971
Epoch (UTC): 28 January 2020 18:12:58
Eccentricity: 0.0007284
inclination: 97.5972°
perigee height: 614 km
apogee height: 624 km
right ascension of ascending node: 47.6791°
argument of perigee: 310.4613°
revolutions per day: 14.83137888
mean anomaly at epoch: 49.5966°
orbit number at epoch: 91097

The dashed part of the orbit path shows where the satellite is in the earth's shadow,  

DLR